Location: Kikino
(54.4440°N, 112.0940°W)
Time: 03:13:05
(UTC+00:00)

Vanguard 3 - Visible Passes

Search period start: 21 May 2024 00:00
Search period end: 31 May 2024 00:00
Orbit: 509 x 3233 km, 33.3° (Epoch: 20 May)

Date Brightness Start Highest point End Pass type
(mag) Time Alt. Az. Time Alt. Az. Time Alt. Az.
21 May 10.1 04:01:35 10° SW 04:11:33 30° SSE 04:25:36 10° ESE visible
21 May 10.3 06:12:02 10° WSW 06:23:55 30° SSW 06:39:03 10° SE visible
21 May 10.7 08:25:47 10° WSW 08:36:22 20° SSW 08:48:01 10° S visible
22 May 10.1 04:54:27 10° SW 05:05:02 31° S 05:19:37 10° SE visible
22 May 10.5 07:06:11 10° WSW 07:17:31 25° SSW 07:27:41 15° SSE visible
22 May 10.9 09:24:57 10° WSW 09:29:25 11° SW 09:31:35 11° SW visible
23 May 10.3 05:47:52 10° WSW 05:58:37 28° SSW 06:11:19 13° SE visible
23 May 10.7 08:01:38 10° WSW 08:10:55 18° SSW 08:15:21 16° SSW visible
24 May 10.1 04:30:26 10° SW 04:39:55 29° S 04:53:19 10° SE visible
24 May 10.5 06:42:03 10° WSW 06:52:10 23° SSW 06:59:53 17° S visible
25 May 10.3 05:23:51 10° WSW 05:33:25 26° SSW 05:44:47 13° SSE visible
25 May 10.7 07:37:50 10° WSW 07:45:32 15° SSW 07:48:52 14° SSW visible
26 May 10.5 06:18:07 10° WSW 06:26:54 20° SSW 06:34:02 15° S visible
27 May 10.3 04:59:58 10° WSW 05:08:20 23° SSW 05:19:20 11° SSE visible
27 May 10.8 07:14:35 10° SW 07:20:15 13° SSW 07:23:28 12° SSW visible
28 May 10.5 05:54:27 10° WSW 06:01:45 17° SSW 06:08:54 12° S visible
29 May 10.3 04:36:15 10° SW 04:43:20 20° SSW 04:52:51 10° SSE visible
29 May 10.8 06:53:13 10° SW 06:55:03 10° SSW 06:56:58 10° SSW visible
30 May 10.5 05:31:10 10° SW 05:36:41 14° SSW 05:43:22 10° S visible
